Temp
84 84 85 84 85 85 85 85 87 87 85 87 87 87 87 88 88 87 88 88 87 88 87 87 87 87 89 88 87 87 87 87 88 88 87 88 88 89 89 88 88 88
84 84 84 86 84 84 85 86 86 86 85 85 87 88 87 87 88 88 87 87 88 88 87 88 87 87 87 88 87 87 86 87 86 90 87 86 87 89 89 89 89 88
85 85 85 86 87 86 88 87 86 86 87 88 88 87 89 89 88 87 87 88 88 90 88 87 87 87 87 87 86 87 88 86 86 89 86 86 88 87 88 90 90 89
84 85 87 88 89 88 88 87 86 86 87 87 87 89 89 90 88 88 87 86 87 87 88 88 88 89 88 88 86 87 87 85 87 87 86 86 87 88 88 88 89 90
85 85 87 88 88 87 87 87 88 88 88 87 89 88 86 85 86 88 88 87 86 87 87 87 87 88 87 87 87 86 87 87 88 86 85 85 86 87 89 88 87 87
85 85 85 86 87 86 87 88 88 89 88 89 88 90 89 88 88 88 88 89 90 90 90 90 89 89 89 88 87 86 88 89 89 86 85 85 87 89 90 89 87 86
86 85 86 87 88 88 87 87 88 88 89 90 89 88 89 89 88 87 88 89 90 89 90 88 87 87 88 87 86 85 86 86 86 86 85 86 86 86 88 88 86 86
87 87 87 87 88 88 87 89 89 88 88 89 89 89 89 89 88 90 89 89 89 89 88 89 87 86 89 88 87 86 86 89 88 85 84 85 85 85 86 88 87 85
88 87 87 87 88 88 89 90 90 89 89 89 90 91 90 89 90 90 88 88 88 88 87 88 87 88 88 88 87 86 86 88 89 87 86 86 86 85 86 87 87 86
86 87 88 88 88 89 89 90 91 90 90 90 91 92 91 90 90 90 89 86 87 87 87 87 87 87 88 88 87 87 86 86 86 87 87 87 87 87 88 87 87 86
86 87 87 87 88 89 90 90 90 91 90 90 91 91 91 91 89 89 88 87 88 88 87 87 87 88 87 88 89 89 88 88 87 87 87 87 87 87 86 87 86 87
83 86 87 87 88 89 90 90 91 90 90 90 90 90 90 91 90 90 89 87 87 88 88 88 87 87 87 87 89 89 89 89 88 87 88 87 88 88 88 88 88 87
85 84 86 87 87 88 90 90 90 91 91 90 90 90 90 90 91 90 89 89 88 87 87 87 87 88 86 86 87 87 88 88 89 88 88 88 89 89 90 90 90 90
86 86 86 86 86 85 86 88 89 90 90 90 90 89 90 91 91 91 91 90 89 88 87 86 86 86 86 86 87 87 88 88 88 88 88 88 89 89 90 91 90 91
84 86 84 84 84 83 84 85 87 88 88 88 88 89 92 91 90 91 90 89 90 88 87 87 86 86 86 86 86 86 87 87 86 85 85 84 85 87 88 88 89 91
82 82 82 82 82 82 82 84 86 87 88 88 88 88 88 88 88 88 90 89 88 87 86 86 86 86 84 81 82 85 85 86 85 83 83 83 83 84 87 89 88 91
78 79 79 78 79 80 81 82 83 85 85 85 85 86 86 86 86 88 88 89 89 89 88 89 87 87 79 72 72 76 84 85 84 83 83 83 84 83 83 87 88 90
77 78 76 76 77 78 79 80 81 82 82 83 84 85 84 86 86 86 86 88 87 88 89 89 90 83 71 69 70 71 77 84 85 85 86 85 85 85 85 86 88 89
76 75 73 74 73 72 73 75 77 79 80 82 83 84 85 83 83 84 85 86 86 85 87 88 89 73 67 69 69 68 69 77 86 86 85 86 86 85 85 85 86 87
72 72 71 71 72 71 72 73 74 77 79 80 81 81 81 82 82 82 82 82 83 83 83 85 86 66 64 64 65 65 67 73 82 85 85 86 85 85 87 85 84 84
72 73 72 71 71 72 73 74 75 76 76 76 78 78 78 79 80 79 79 77 77 80 80 81 75 59 61 62 62 63 64 71 79 82 83 83 82 82 82 84 84 85
71 71 72 72 71 72 72 72 73 73 72 73 72 73 74 74 76 77 76 75 74 74 74 73 71 57 58 59 60 61 64 77 79 78 79 79 80 81 81 81 81 81
70 70 70 71 71 71 70 71 71 71 72 73 71 71 71 71 74 74 75 75 74 74 74 73 73 61 56 57 58 58 68 77 77 78 78 79 80 81 81 82 82 81
69 69 68 68 68 68 68 70 71 71 70 72 73 73 71 72 73 72 74 75 75 72 71 68 66 61 55 55 56 57 68 76 77 78 78 78 78 79 80 81 80 79
68 68 68 68 67 67 68 69 70 71 72 73 72 71 70 71 72 71 69 69 69 69 69 66 65 63 55 54 55 56 67 73 72 74 74 75 76 75 76 76 77 78
68 68 68 67 67 67 68 68 70 71 71 70 69 71 71 71 70 68 67 67 68 68 68 67 64 64 60 52 53 54 59 70 70 70 69 71 72 72 73 75 75 74
MSLP
1019.48 1019.68 1019.96 1020.16 1020.20 1020.20 1020.32 1020.52 1020.44 1020.56 1020.68 1020.56 1020.76 1020.72 1020.76 1020.60 1020.52 1020.68 1020.72 1020.72 1020.84 1020.88 1020.92 1021.00 1021.00 1021.08 1020.96 1021.00 1021.04 1021.08 1021.16 1021.20 1021.16 1021.16 1021.32 1021.36 1021.44 1021.44 1021.52 1021.56 1021.52 1021.52
1019.32 1019.44 1019.60 1019.72 1019.96 1020.04 1020.12 1020.08 1020.20 1020.32 1020.44 1020.48 1020.36 1020.36 1020.36 1020.40 1020.40 1020.48 1020.64 1020.72 1020.68 1020.76 1020.72 1020.76 1020.84 1020.92 1020.96 1020.96 1021.00 1021.16 1021.28 1021.28 1021.40 1020.96 1021.40 1021.52 1021.48 1021.36 1021.40 1021.36 1021.40 1021.28
1019.08 1019.28 1019.44 1019.68 1019.72 1019.84 1019.80 1019.80 1019.96 1020.04 1020.12 1020.08 1020.08 1020.20 1020.28 1020.16 1020.32 1020.36 1020.40 1020.48 1020.56 1020.48 1020.60 1020.64 1020.72 1020.80 1020.88 1020.92 1021.04 1021.16 1021.24 1021.36 1021.48 1021.08 1021.32 1021.56 1021.32 1021.40 1021.28 1021.12 1021.12 1021.20
1018.92 1018.96 1019.04 1019.12 1019.20 1019.44 1019.48 1019.72 1019.88 1019.96 1019.88 1020.08 1020.12 1019.92 1020.00 1020.00 1020.12 1020.24 1020.32 1020.40 1020.48 1020.52 1020.44 1020.44 1020.60 1020.60 1020.68 1020.80 1021.00 1021.16 1021.12 1021.36 1021.16 1021.12 1021.32 1021.28 1021.24 1021.20 1021.16 1021.12 1021.08 1021.04
1018.64 1018.76 1018.80 1018.84 1018.92 1019.08 1019.28 1019.56 1019.64 1019.68 1019.80 1019.76 1019.72 1019.80 1019.96 1020.12 1020.16 1020.12 1020.20 1020.24 1020.32 1020.36 1020.36 1020.48 1020.44 1020.52 1020.60 1020.72 1020.84 1021.04 1021.00 1021.04 1020.92 1021.08 1021.28 1021.40 1021.16 1021.16 1021.04 1021.04 1021.24 1021.28
1018.32 1018.40 1018.56 1018.68 1018.80 1019.00 1019.20 1019.32 1019.40 1019.44 1019.52 1019.56 1019.64 1019.48 1019.60 1019.76 1019.88 1019.92 1019.92 1020.04 1019.96 1020.04 1020.12 1020.12 1020.28 1020.28 1020.32 1020.44 1020.64 1020.76 1020.76 1020.80 1020.68 1020.92 1021.20 1021.32 1021.12 1020.84 1020.80 1020.88 1021.08 1021.24
1018.12 1018.24 1018.40 1018.44 1018.60 1018.68 1018.96 1019.00 1019.04 1019.12 1019.16 1019.12 1019.16 1019.40 1019.32 1019.52 1019.64 1019.68 1019.68 1019.72 1019.76 1019.84 1019.92 1020.00 1020.16 1020.20 1020.12 1020.28 1020.52 1020.72 1020.72 1020.76 1020.72 1020.88 1021.16 1021.08 1021.04 1021.04 1020.76 1020.84 1021.00 1021.12
1017.68 1017.80 1017.96 1018.16 1018.40 1018.48 1018.72 1018.76 1018.80 1018.92 1018.92 1019.00 1019.20 1019.08 1019.08 1019.20 1019.28 1019.20 1019.28 1019.40 1019.52 1019.60 1019.68 1019.72 1019.84 1020.00 1019.92 1020.00 1020.28 1020.48 1020.56 1020.36 1020.52 1020.72 1020.88 1020.92 1020.84 1021.04 1020.84 1020.72 1020.76 1020.96
1017.40 1017.60 1017.76 1017.96 1018.16 1018.24 1018.40 1018.40 1018.48 1018.56 1018.56 1018.88 1018.92 1018.80 1018.76 1018.84 1018.88 1018.88 1019.04 1019.12 1019.28 1019.36 1019.48 1019.56 1019.64 1019.72 1019.68 1019.80 1019.96 1020.16 1020.28 1020.16 1020.04 1020.28 1020.56 1020.68 1020.72 1020.72 1020.60 1020.44 1020.60 1020.68
1017.36 1017.40 1017.56 1017.72 1017.92 1017.88 1018.08 1018.04 1018.04 1018.12 1018.16 1018.40 1018.44 1018.40 1018.56 1018.56 1018.56 1018.64 1018.80 1019.08 1019.20 1019.24 1019.32 1019.36 1019.40 1019.48 1019.48 1019.48 1019.68 1019.80 1019.92 1020.04 1020.00 1020.08 1020.12 1020.20 1020.32 1020.36 1020.28 1020.28 1020.40 1020.52
1017.24 1017.24 1017.40 1017.52 1017.60 1017.56 1017.64 1017.68 1017.76 1017.84 1017.88 1018.04 1018.08 1018.20 1018.20 1018.24 1018.40 1018.44 1018.68 1018.92 1019.04 1019.08 1019.12 1019.16 1019.12 1019.16 1019.32 1019.28 1019.24 1019.24 1019.44 1019.56 1019.60 1019.72 1019.80 1019.88 1019.88 1019.96 1020.04 1020.12 1020.20 1020.28
1017.24 1017.16 1017.16 1017.16 1017.24 1017.24 1017.28 1017.36 1017.44 1017.60 1017.72 1017.80 1017.88 1018.12 1018.12 1018.08 1018.20 1018.24 1018.40 1018.64 1018.68 1018.68 1018.72 1018.80 1018.80 1018.88 1019.00 1019.04 1019.00 1018.96 1019.08 1019.16 1019.24 1019.36 1019.40 1019.48 1019.52 1019.52 1019.60 1019.60 1019.72 1019.80
1016.80 1016.92 1016.80 1016.80 1016.88 1016.92 1016.88 1017.00 1017.16 1017.24 1017.36 1017.52 1017.48 1017.72 1017.92 1017.96 1017.88 1018.04 1018.08 1018.24 1018.40 1018.48 1018.60 1018.64 1018.64 1018.60 1018.72 1018.80 1018.80 1018.80 1018.88 1018.96 1019.00 1019.08 1019.12 1019.16 1019.16 1019.16 1019.16 1019.16 1019.24 1019.28
1016.12 1016.20 1016.40 1016.52 1016.52 1016.64 1016.76 1016.80 1016.88 1016.96 1017.04 1017.04 1017.16 1017.44 1017.56 1017.56 1017.64 1017.68 1017.72 1017.80 1018.00 1018.16 1018.24 1018.28 1018.44 1018.56 1018.56 1018.56 1018.56 1018.56 1018.64 1018.76 1018.84 1019.04 1019.12 1019.08 1019.00 1018.96 1018.84 1018.84 1018.84 1018.80
1016.00 1016.00 1016.12 1016.36 1016.56 1016.68 1016.76 1016.80 1016.80 1016.84 1016.88 1016.96 1017.04 1017.08 1017.04 1017.08 1017.16 1017.32 1017.60 1017.76 1017.72 1017.84 1017.96 1018.00 1018.16 1018.24 1018.20 1018.32 1018.48 1018.56 1018.56 1018.76 1018.92 1019.08 1019.24 1019.40 1019.32 1019.08 1018.88 1018.84 1018.68 1018.44
1015.88 1016.04 1016.28 1016.44 1016.72 1016.88 1016.88 1016.80 1016.76 1016.76 1016.76 1016.88 1016.96 1016.96 1017.04 1017.08 1017.20 1017.32 1017.40 1017.56 1017.72 1017.76 1017.80 1017.88 1017.96 1017.88 1017.96 1018.16 1018.20 1018.28 1018.40 1018.44 1018.56 1018.76 1018.88 1019.00 1019.20 1019.12 1018.80 1018.60 1018.56 1018.16
1015.88 1016.04 1016.20 1016.52 1016.60 1016.80 1016.96 1017.04 1017.00 1016.84 1016.88 1016.96 1017.00 1017.04 1017.16 1017.24 1017.32 1017.40 1017.40 1017.36 1017.44 1017.56 1017.72 1017.64 1017.68 1017.64 1017.88 1018.04 1018.12 1018.16 1018.20 1018.32 1018.48 1018.60 1018.64 1018.76 1018.76 1018.84 1018.84 1018.48 1018.28 1018.00
1015.68 1015.84 1016.24 1016.64 1016.80 1016.84 1016.92 1017.12 1017.16 1017.16 1017.12 1017.08 1017.08 1017.12 1017.20 1017.16 1017.28 1017.32 1017.28 1017.28 1017.28 1017.32 1017.44 1017.44 1017.40 1017.36 1017.68 1018.00 1018.28 1018.44 1018.36 1018.24 1018.16 1018.24 1018.20 1018.28 1018.32 1018.36 1018.28 1018.16 1018.00 1017.80
1016.00 1016.00 1016.36 1016.76 1017.08 1017.16 1017.08 1017.08 1017.28 1017.40 1017.36 1017.28 1017.24 1017.04 1017.04 1017.28 1017.32 1017.32 1017.28 1017.20 1017.28 1017.44 1017.48 1017.32 1017.40 1017.76 1018.12 1018.40 1018.56 1018.72 1018.72 1018.60 1018.16 1017.96 1017.96 1017.84 1017.84 1017.96 1018.00 1018.04 1017.92 1017.84
1017.08 1017.08 1017.00 1016.40 1016.48 1017.08 1017.44 1017.48 1017.44 1017.44 1017.36 1017.32 1017.28 1017.24 1017.32 1017.24 1017.20 1017.32 1017.32 1017.48 1017.56 1017.68 1017.76 1017.56 1017.60 1018.56 1018.60 1018.60 1018.64 1018.76 1018.76 1018.64 1018.20 1018.00 1017.80 1017.68 1017.72 1017.68 1017.64 1017.76 1017.88 1017.96
1017.36 1017.32 1017.44 1017.16 1016.84 1017.08 1017.64 1017.72 1017.60 1017.44 1017.64 1017.72 1017.64 1017.68 1017.80 1017.80 1017.64 1017.72 1017.84 1017.96 1018.00 1018.00 1018.16 1018.44 1019.12 1019.40 1019.12 1019.08 1019.08 1019.00 1018.92 1018.72 1018.28 1018.16 1018.00 1017.96 1017.88 1017.80 1017.80 1017.80 1017.76 1017.76
1017.00 1017.16 1017.20 1017.32 1017.24 1017.24 1017.84 1018.28 1017.92 1017.52 1017.84 1017.92 1017.96 1017.80 1017.88 1018.16 1018.04 1017.84 1017.92 1017.88 1017.68 1017.80 1018.08 1018.48 1019.32 1019.80 1019.52 1019.28 1019.20 1019.08 1019.00 1018.56 1018.28 1018.36 1018.24 1018.16 1018.00 1017.84 1017.72 1017.68 1017.68 1017.72
1016.96 1017.12 1017.16 1017.20 1017.36 1017.64 1018.12 1018.40 1018.32 1017.92 1017.80 1018.08 1018.60 1018.20 1017.84 1017.84 1017.76 1018.08 1018.16 1018.04 1018.08 1018.08 1018.24 1018.64 1019.20 1019.68 1019.52 1019.36 1019.24 1019.16 1018.80 1018.40 1018.40 1018.24 1018.12 1018.04 1017.88 1017.68 1017.60 1017.48 1017.44 1017.40
1016.88 1017.04 1017.32 1017.52 1017.64 1018.00 1018.20 1018.32 1018.28 1018.16 1017.92 1017.96 1018.24 1018.24 1018.12 1017.92 1017.96 1018.20 1018.16 1018.00 1017.92 1018.20 1018.44 1019.04 1019.36 1019.52 1019.48 1019.32 1019.16 1019.04 1018.76 1018.52 1018.28 1018.12 1017.92 1017.84 1017.76 1017.60 1017.48 1017.36 1017.32 1017.32
1016.88 1017.00 1017.20 1017.60 1018.00 1018.24 1018.32 1018.44 1018.40 1018.20 1018.00 1018.08 1018.40 1018.44 1018.32 1017.68 1017.76 1018.32 1018.68 1018.60 1018.60 1018.80 1018.96 1019.16 1019.24 1019.40 1019.52 1019.48 1019.32 1019.08 1018.76 1018.48 1018.32 1018.32 1018.36 1018.16 1018.00 1017.96 1017.76 1017.68 1017.52 1017.28
1017.44 1017.40 1017.44 1017.72 1018.04 1018.20 1018.44 1018.60 1018.44 1018.32 1018.28 1018.40 1018.48 1018.28 1018.28 1018.16 1018.24 1018.68 1019.16 1019.12 1018.88 1018.84 1018.96 1019.16 1019.52 1019.76 1020.00 1019.96 1019.72 1019.44 1019.08 1018.64 1018.52 1018.52 1018.64 1018.48 1018.32 1018.16 1018.04 1017.76 1017.60 1017.60
Wind_Speed
8 7 8 7 7 6 6 6 6 7 6 6 6 6 6 5 5 6 6 5 5 5 5 5 5 5 5 4 3 3 3 3 3 2 3 3 3 3 3 3 3 3
10 9 7 7 5 5 5 6 6 6 6 6 6 5 5 5 5 6 6 6 6 6 6 6 5 5 5 5 3 3 3 3 4 2 2 4 4 4 4 4 4 2
10 10 10 9 8 8 9 7 6 6 6 6 6 5 5 5 6 5 6 6 6 6 5 5 6 5 5 5 4 4 4 3 4 3 2 3 4 4 4 4 4 4
11 11 11 11 10 8 8 6 6 6 6 5 6 6 5 5 5 6 6 6 6 6 6 6 6 6 5 5 4 4 4 4 5 3 4 4 4 5 5 4 5 5
12 11 10 10 9 8 7 7 8 7 7 7 6 5 5 5 6 6 6 6 6 7 6 6 6 6 5 5 5 5 5 6 5 4 4 5 5 5 5 4 5 5
10 10 10 10 9 8 8 9 8 8 8 8 7 6 6 6 6 7 7 7 7 7 7 6 6 6 6 6 6 6 6 6 5 4 5 5 6 5 4 4 5 5
11 11 12 10 10 10 10 9 8 8 8 8 6 7 6 7 7 7 7 7 7 7 7 6 6 6 6 5 5 6 6 6 6 5 6 6 5 6 6 5 5 5
13 11 11 10 11 11 11 10 9 8 8 7 8 7 8 8 8 8 8 8 8 8 7 7 7 7 7 6 6 6 7 6 6 7 7 7 6 6 6 5 5 5
11 11 10 12 12 11 12 12 10 10 9 9 8 8 8 8 8 8 8 8 8 7 7 7 7 7 6 7 6 7 7 7 7 7 7 7 7 7 7 6 6 5
11 10 11 12 12 11 12 12 11 10 10 10 10 9 8 8 8 8 8 7 8 8 8 8 7 7 7 7 8 8 7 7 7 7 7 7 7 7 7 6 6 6
11 11 11 12 12 11 13 12 12 10 9 11 10 10 9 8 7 8 7 7 8 8 8 8 8 8 8 8 7 7 8 8 7 7 7 7 8 7 7 7 7 7
10 11 12 13 12 12 12 11 11 10 10 9 10 10 9 9 8 8 7 8 8 8 7 7 7 7 7 8 8 8 8 8 7 8 8 8 8 8 7 7 7 7
12 12 12 12 12 11 10 10 10 10 10 10 9 10 10 10 9 9 8 7 7 7 7 7 7 7 7 7 8 8 8 8 8 8 8 7 7 8 8 8 8 8
12 12 11 10 9 9 10 10 9 10 10 10 9 10 10 11 10 9 8 8 7 7 7 7 7 7 7 7 7 8 8 8 7 6 7 7 7 7 8 8 8 9
8 8 8 8 8 8 9 9 10 9 9 9 9 9 9 10 10 9 8 8 7 7 7 6 7 7 6 7 7 7 6 5 5 5 6 7 8 9 9 8 9 8
8 7 7 6 6 8 8 9 9 9 9 9 9 9 8 7 7 7 8 9 8 7 7 6 6 5 5 6 6 6 7 7 6 7 7 7 8 8 9 9 10 9
6 6 6 7 7 6 5 6 7 7 7 7 7 7 7 6 7 9 9 7 8 8 7 7 6 5 8 11 12 11 7 6 7 7 7 7 8 8 9 9 9 9
7 7 4 3 2 4 3 4 4 5 6 7 7 8 6 7 8 8 8 8 7 8 8 7 7 6 11 9 8 8 9 7 6 6 6 6 7 9 8 8 8 8
5 7 7 4 0 1 1 2 2 5 6 7 8 7 6 6 6 6 7 6 6 6 7 5 4 9 6 4 2 2 4 8 7 7 6 7 8 8 8 8 7 8
5 2 2 5 5 3 1 3 4 6 5 4 4 5 5 6 5 4 3 3 2 3 3 5 1 12 8 7 6 4 2 4 7 7 7 8 8 8 7 7 8 8
1 0 1 2 5 4 2 5 4 2 2 4 3 2 4 3 2 2 5 7 7 7 7 8 8 10 8 7 6 3 1 4 4 7 7 8 8 7 8 8 8 8
5 4 4 4 4 4 3 5 2 4 3 3 2 2 3 2 2 3 4 3 2 1 1 1 4 11 9 8 5 3 2 3 4 5 7 8 9 8 7 7 7 8
4 5 5 4 3 4 4 1 2 3 3 1 2 0 4 3 4 1 2 2 1 3 3 3 3 8 9 8 7 5 3 3 4 5 6 7 8 8 8 8 7 7
5 6 6 5 6 5 4 3 2 0 1 2 4 4 2 2 5 3 2 1 2 3 4 5 5 8 10 10 9 9 5 4 5 6 7 7 7 7 8 8 7 9
6 6 6 6 5 4 3 3 2 2 2 1 2 3 1 2 1 5 6 7 8 8 12 9 7 8 11 10 9 8 4 1 3 4 5 6 6 6 6 5 7 9
5 6 6 6 5 6 3 2 2 1 2 1 2 2 3 4 7 7 8 7 8 9 9 8 7 7 9 11 10 10 9 2 2 2 3 5 4 5 6 5 5 4
Wind_Direction
191 189 197 201 210 216 218 216 222 223 221 227 230 227 226 231 228 230 234 236 239 248 241 237 240 244 247 245 246 245 247 249 258 228 236 249 256 258 260 255 252 259
194 192 192 198 197 204 215 225 221 222 219 220 231 229 225 227 225 226 229 231 232 239 239 241 242 251 257 258 257 261 262 255 254 232 235 238 255 261 258 257 266 263
199 198 200 203 209 208 220 216 221 221 227 230 227 229 235 226 231 218 227 231 237 245 236 239 246 247 255 256 260 265 259 259 263 255 239 252 259 259 269 266 256 257
203 206 210 213 215 212 211 210 211 218 226 219 225 230 228 235 228 229 225 223 233 236 244 247 251 257 250 249 249 258 258 245 259 268 252 251 253 265 270 265 268 269
204 205 209 211 211 208 209 214 222 214 220 222 227 216 216 220 231 236 227 222 221 232 229 233 239 245 239 239 235 247 246 250 240 233 251 258 255 252 262 264 265 269
201 202 201 204 199 200 212 217 217 218 218 218 221 220 221 216 224 230 230 230 226 229 235 234 234 238 236 231 232 240 250 255 251 234 253 258 263 255 257 257 259 261
204 202 205 204 205 204 213 215 215 216 219 223 215 218 218 217 215 220 223 228 239 240 241 234 226 234 230 231 229 234 239 249 259 251 255 261 255 262 259 256 256 261
210 204 202 202 205 207 211 214 215 212 214 214 219 218 216 218 217 221 220 223 232 234 235 235 229 223 233 228 228 229 234 230 230 229 237 248 254 254 255 258 261 263
210 206 201 202 207 212 215 219 214 215 211 217 226 226 216 221 220 224 220 219 227 231 227 232 227 233 231 228 228 227 232 238 237 231 233 243 246 248 253 250 248 251
209 210 208 207 211 215 219 220 221 217 211 219 224 230 226 218 223 228 221 216 224 225 223 227 224 226 229 227 226 230 233 233 236 236 242 246 251 256 256 253 256 257
214 212 212 213 216 219 221 221 223 224 219 220 223 227 229 228 219 221 223 218 226 224 224 222 224 224 224 230 229 227 228 233 233 229 234 241 248 251 255 256 258 259
214 217 216 215 217 220 223 224 225 227 228 222 224 227 229 234 234 228 223 223 227 231 232 227 225 224 223 231 234 231 228 232 230 230 234 237 242 243 244 247 252 256
210 215 218 216 214 218 221 221 223 224 224 224 217 222 227 235 236 234 230 233 232 231 235 236 233 230 225 226 233 235 235 237 241 235 237 235 238 239 242 241 244 249
211 211 218 221 217 209 213 219 222 225 225 224 221 220 227 233 237 236 231 229 232 231 232 234 235 235 227 228 230 233 233 238 243 258 265 261 258 250 245 247 245 245
217 217 210 206 211 209 212 218 223 225 225 225 222 227 229 230 232 237 241 239 237 236 232 225 231 232 230 222 225 228 238 238 234 235 244 258 267 270 268 263 260 253
202 204 217 209 219 225 223 221 225 227 228 227 229 231 235 236 239 242 245 244 240 230 227 227 230 232 207 189 200 210 203 213 214 216 225 235 249 264 265 255 258 259
161 170 167 187 198 209 219 227 232 231 228 230 233 236 239 237 241 248 250 251 249 246 240 242 231 224 183 190 194 202 216 223 223 228 226 237 246 249 256 261 259 261
175 176 156 179 216 185 169 228 242 234 236 234 237 239 232 239 245 245 252 253 252 251 255 257 252 212 194 199 202 206 223 239 239 239 232 228 235 244 249 255 258 260
188 165 153 147 144 44 64 116 239 266 255 249 250 247 249 244 243 247 248 253 259 261 260 264 272 65 64 50 19 290 267 267 260 255 249 250 248 246 250 253 253 255
1 30 75 141 136 155 218 254 250 250 263 274 268 257 244 239 230 221 221 235 283 288 279 264 353 40 43 57 64 68 93 242 252 265 263 258 256 257 259 259 256 259
16 36 161 78 109 119 242 244 225 255 277 259 267 344 342 322 3 27 49 46 34 8 2 10 31 6 42 41 47 58 44 258 262 266 269 272 267 263 263 262 265 269
145 156 146 154 150 142 179 248 214 92 61 16 61 92 106 341 4 42 86 125 166 102 126 80 53 12 6 29 28 34 316 300 291 282 279 280 279 275 268 262 262 266
148 146 134 128 112 106 97 64 6 61 96 336 291 307 112 177 239 99 49 57 30 51 73 103 60 19 6 14 19 355 288 334 309 295 284 279 282 287 286 278 269 267
117 115 103 89 78 70 67 56 38 164 111 179 210 213 172 322 318 299 305 47 90 96 111 103 76 35 19 9 9 3 334 353 312 293 289 287 287 287 286 286 282 278
84 82 84 88 92 84 58 47 29 48 85 102 59 62 96 231 41 56 51 49 58 64 73 77 63 42 27 13 13 8 355 258 319 331 315 310 312 312 311 306 306 305
36 78 94 99 87 84 89 85 17 62 140 132 92 81 98 52 62 73 66 53 59 72 71 72 66 49 28 17 18 14 1 21 32 30 352 335 336 324 321 311 319 350